Weather in Suzhou

China     31°18′31″N   120°35′51″E
temp.,
°C
wind,
m/s
gust,
m/s
humid.,
%
clouds,
%
prec.,
mm/h
press.,
hPa
HPBL,
m
27 january, thu
thu2723:00+6ne51093100 3.8 1024612
02:00+6ne61090100 5.9 1024670
05:00+6ne5988100 0.4 1024631
08:00+5ne5889100 1.6 1026686
11:00+5ne5893100 1.3 1027680
14:00+5ne5890100 2.0 1025754
17:00+5ne5987100 0.8 1026713
20:00+5ne5975100 0.8 1027746
28 january, fri
fri2823:00+3ne5892100 1.9 1028561
02:00+3nne3690100 3.8 1028485
05:00+3nne4794100 2.0 1028529
08:00+3nne4891100 2.9 1029574
11:00+6ne5565100 0.0 10291154
14:00+6ne4566100 0.2 1026961
17:00+4nne5787100 1.1 1026660
20:00+3ne4781100 1.8 1028689
29 january, sat
sat2923:00+2nne3692100 0.5 1028471
02:00+3n357893 0.7 1027592
05:00+3nne367684 0.0 1025397
08:00+3nne367391 0.0 1026452
11:00+5nne3459100 0.0 10261067
14:00+5nne3464100 0.1 1024929
17:00+4ne2468100 0.3 1023864
20:00+5ne2460100 0.3 1025517
30 january, sun
sun3023:00+4ne2363100 0.0 1025321
02:00+4nne3466100 0.0 1024371
05:00+3n2467100 0.0 1025369
08:00+4n346815 0.0 1027424
11:00+6n23505 0.0 10271142
14:00+8ne23405 0.0 10251229
17:00+7wnw12485 0.0 1026497
20:00+6e35574 0.0 1026250
31 january, mon
mon3123:00+5sse2469100 0.0 1028234
02:00+4ene1173100 0.0 102650
05:00+4se1170100 0.0 102564
08:00+5sw1269100 0.0 1026202
11:00+6w4567100 0.0 1028664
14:00+7w5762100 0.0 10251072
17:00+8wnw4865100 0.0 1025957
20:00+6nnw594333 0.0 1028609